Fallon, NV

5:39 AM PST on February 28, 2017 (GMT -0800)
Fallon Naval Air Station

Weather History for KNFL - November, 2012

Change the Weather History Date:

Wednesday, November 7, 2012

  Actual Average Record
Temperature  
Mean Temperature 54 °F -  
Max Temperature 73 °F 60 °F 77 °F (1980)
Min Temperature 35 °F 29 °F 11 °F (1961)
Degree Days  
Heating Degree Days 11    
Growing Degree Days 4 (Base 50)    
Moisture  
Dew Point 25 °F    
Average Humidity 35    
Maximum Humidity 61    
Minimum Humidity 16    
Precipitation  
Precipitation 0.00 in - - ()
Sea Level Pressure  
Sea Level Pressure 29.93 in    
Wind  
Wind Speed 5 mph (SSW)    
Max Wind Speed 10 mph    
Max Gust Speed -    
Visibility 10 miles    
Events      
Averages and records for this station are not official NWS values.
T = Trace of Precipitation, MM = Missing Value Source: NWS Daily Summary

Daily Weather History Graph

Daily Weather History Graph

Search for Another Location

Airport or City:

Trip Planner

Search our weather history database for the weather conditions in past years. The results will help you decide how hot, cold, wet, or windy it might be!

Date:

Astronomy

Nov. 07, 2012 Rise Set
Actual Time 6:30 AM PST 4:46 PM PST
Civil Twilight 6:01 AM PST 5:14 PM PST
Nautical Twilight 5:29 AM PST 5:46 PM PST
Astronomical Twilight 4:58 AM PST 6:18 PM PST
Moon No Moon Rise 12:56 PM PST (11/7)
Length of Visible Light 11h 12m
Length of Day
10h 16m
Last Quarter, 42% of the Moon is Illuminated
Nov 7
Last Quarter
Nov 13
New
Nov 20
First Quarter
Nov 28
Full
Dec 6
Last Quarter

Hourly Weather History & Observations

Time (PST) Temp. Windchill Dew Point Humidity Pressure Visibility Wind Dir Wind Speed Gust Speed Precip Events Conditions
12:56 AM 39.0 °F 34.8 °F 23.0 °F 53% 30.04 in 10.0 mi South 5.8 mph - N/A   Clear
1:56 AM 39.0 °F 32.8 °F 23.0 °F 53% 30.04 in 10.0 mi SSE 9.2 mph - N/A   Clear
2:56 AM 39.9 °F 35.8 °F 24.1 °F 53% 30.03 in 10.0 mi SSE 5.8 mph - N/A   Clear
3:56 AM 39.0 °F 35.7 °F 24.1 °F 55% 30.02 in 10.0 mi South 4.6 mph - N/A   Clear
4:56 AM 37.9 °F 34.4 °F 23.0 °F 55% 30.02 in 10.0 mi SSE 4.6 mph - N/A   Clear
5:56 AM 35.1 °F - 23.0 °F 61% 30.02 in 10.0 mi Calm Calm - N/A   Clear
6:13 AM 35.6 °F - 21.2 °F 56% 30.12 in 10.0 mi Calm Calm - N/A   Clear
6:56 AM 37.4 °F 31.4 °F 23.0 °F 56% 30.02 in 10.0 mi South 8.1 mph - N/A   Partly Cloudy
7:56 AM 48.0 °F - 26.1 °F 42% 30.03 in 10.0 mi SSE 6.9 mph - N/A   Clear
8:56 AM 55.0 °F - 28.9 °F 37% 30.02 in 10.0 mi SSW 3.5 mph - N/A   Partly Cloudy
9:56 AM 63.0 °F - 27.0 °F 26% 30.00 in 10.0 mi Variable 4.6 mph - N/A   Scattered Clouds
10:56 AM 69.1 °F - 25.0 °F 19% 29.97 in 10.0 mi South 5.8 mph - N/A   Scattered Clouds
11:56 AM 71.1 °F - 24.1 °F 17% 29.94 in 10.0 mi SSW 8.1 mph - N/A   Scattered Clouds
12:56 PM 72.0 °F - 24.1 °F 17% 29.91 in 10.0 mi South 3.5 mph - N/A   Scattered Clouds
1:56 PM 73.9 °F - 24.1 °F 16% 29.88 in 10.0 mi SSE 3.5 mph - N/A   Scattered Clouds
2:56 PM 73.9 °F - 24.1 °F 16% 29.86 in 10.0 mi Calm Calm - N/A   Scattered Clouds
3:56 PM 73.9 °F - 24.1 °F 16% 29.84 in 10.0 mi Calm Calm - N/A   Scattered Clouds
4:56 PM 68.0 °F - 24.1 °F 19% 29.84 in 10.0 mi West 5.8 mph - N/A   Scattered Clouds
5:56 PM 64.0 °F - 27.0 °F 25% 29.85 in 10.0 mi West 10.4 mph - N/A   Scattered Clouds
6:56 PM 61.0 °F - 27.0 °F 27% 29.84 in 10.0 mi WNW 9.2 mph - N/A   Scattered Clouds
7:56 PM 57.9 °F - 27.0 °F 31% 29.83 in 10.0 mi WNW 4.6 mph - N/A   Clear
8:56 PM 59.0 °F - 28.0 °F 31% 29.83 in 10.0 mi West 5.8 mph - N/A   Clear
9:56 PM 54.0 °F - 26.1 °F 34% 29.81 in 10.0 mi East 3.5 mph - N/A   Clear
10:56 PM 57.9 °F - 25.0 °F 28% 29.80 in 10.0 mi South 5.8 mph - N/A   Clear
11:56 PM 53.1 °F - 24.1 °F 32% 29.77 in 10.0 mi SSW 9.2 mph - N/A   Clear